{"data":{"norad_id":57448,"epoch":"2026-05-24T20:43:20.655264Z","epoch_age_seconds":89962,"freshness":"FRESH","line1":"1 57448U 23105U   26144.86343351 -.00000488  00000+0 -82107-5 0  9993","line2":"2 57448  43.0016 192.8891 0001553 280.3856  79.6820 15.27577900157039","mean_motion":15.275779,"eccentricity":0.0001553,"inclination_deg":43.0016,"raan_deg":192.8891,"arg_perigee_deg":280.3856,"mean_anomaly_deg":79.682,"bstar":-8.2107e-6,"rev_number":15703,"period_min":94.266878304537,"perigee_km":481.98984102506,"apogee_km":484.12092737959,"semimajor_km":6861.1923842023,"source":"CELESTRAK","updated_at":"2026-05-25T13:38:18.321946Z"}}